History for Miami, FL

Friday, January 11, 2013 — View Current Conditions

Jump to Data:

Date:
Airport Code:
Recently Viewed Airport Codes: KMIA
Daily Summary
  Actual Average Record
Temperature
Mean Temperature 78°F 68°F  
Max Temperature 82°F 76°F 84°F (2000)
Min Temperature 73°F 60°F 36°F (2010)
Degree Days
Heating Degree Days 0 2  
Month to date heating degree days 0 22  
Since 1 July heating degree days 16 59  
Cooling Degree Days 13 5  
Month to date cooling degree days 121 55  
Year to date cooling degree days 121 55  
Growing Degree Days 28 (Base 50)    
Moisture
Dew Point 66°F    
Average Humidity 69    
Maximum Humidity 79    
Minimum Humidity 58    
Precipitation
Precipitation T in 0.05 in 2.40 in (1973)
Month to date precipitation 0.20 0.56  
Year to date precipitation 0.20 0.56  
Snow
Snow 0.00 in in in ()
Month to date snowfall 0.0  
Since 1 July snowfall 0.0  
Snow Depth 0.00 in    
Sea Level Pressure
Sea Level Pressure 30.20 in    
Wind
Wind Speed 13 mph (East)    
Max Wind Speed 20 mph    
Max Gust Speed 24 mph    
Visibility 10 miles    
Events      
T = Trace of Precipitation, MM = Missing Value Source: NWS Daily Summary

Show full METARS

(help) - Comma Delimited File

Hourly Observations

Time(EST) Temperature Dew Point Humidity Sea Level Pressure Visibility Wind Direction Wind Speed Gust Speed Precipitation Events Conditions
12:53 AM 75.0°F 66.0°F 73% 30.26 in 10.0 miles East 11.5 mph - N/A   Scattered Clouds
1:53 AM 73.9°F 66.0°F 76% 30.25 in 10.0 miles ESE 10.4 mph - N/A   Scattered Clouds
2:53 AM 73.9°F 66.0°F 76% 30.24 in 10.0 miles ESE 10.4 mph - N/A   Partly Cloudy
3:53 AM 73.0°F 66.0°F 79% 30.20 in 10.0 miles ESE 9.2 mph - N/A   Clear
4:53 AM 73.9°F 66.0°F 76% 30.19 in 10.0 miles ESE 9.2 mph - N/A   Scattered Clouds
5:53 AM 73.9°F 64.9°F 73% 30.19 in 10.0 miles ESE 9.2 mph - N/A   Partly Cloudy
6:53 AM 73.9°F 64.9°F 73% 30.20 in 10.0 miles ESE 10.4 mph - N/A   Scattered Clouds
7:53 AM 75.0°F 64.0°F 69% 30.21 in 10.0 miles ESE 9.2 mph - N/A   Mostly Cloudy
8:53 AM 77.0°F 64.9°F 66% 30.22 in 10.0 miles SE 16.1 mph 21.9 mph N/A   Mostly Cloudy
9:53 AM 79.0°F 64.9°F 62% 30.23 in 10.0 miles ESE 16.1 mph 21.9 mph N/A   Mostly Cloudy
10:53 AM 80.1°F 66.0°F 62% 30.24 in 10.0 miles ESE 15.0 mph 20.7 mph N/A   Mostly Cloudy
11:53 AM 80.1°F 64.9°F 60% 30.22 in 10.0 miles East 12.7 mph - N/A   Mostly Cloudy
12:53 PM 78.8°F 64.4°F 61% 30.20 in 10.0 miles East 15.0 mph - N/A   Mostly Cloudy
1:50 PM 80.6°F 64.4°F 58% 30.18 in 10.0 miles East 18.4 mph 24.2 mph 0.00 in   Mostly Cloudy
1:53 PM 81.0°F 64.9°F 58% 30.18 in 10.0 miles East 16.1 mph 24.2 mph 0.00 in   Mostly Cloudy
2:53 PM 78.8°F 66.2°F 65% 30.17 in 10.0 miles ENE 11.5 mph 21.9 mph N/A   Mostly Cloudy
3:19 PM 78.8°F 64.4°F 61% 30.17 in 10.0 miles ENE 13.8 mph 21.9 mph N/A   Mostly Cloudy
3:53 PM 79.0°F 66.0°F 64% 30.17 in 10.0 miles East 13.8 mph - N/A   Mostly Cloudy
4:53 PM 78.1°F 66.0°F 66% 30.17 in 10.0 miles East 17.3 mph - N/A   Mostly Cloudy
5:53 PM 75.0°F 66.0°F 73% 30.17 in 10.0 miles East 15.0 mph - N/A   Mostly Cloudy
6:53 PM 75.0°F 66.0°F 73% 30.17 in 10.0 miles East 13.8 mph - N/A   Mostly Cloudy
7:53 PM 75.0°F 66.9°F 76% 30.18 in 10.0 miles East 13.8 mph - N/A   Mostly Cloudy
8:53 PM 75.9°F 66.9°F 74% 30.18 in 10.0 miles East 11.5 mph - N/A   Mostly Cloudy
9:53 PM 75.0°F 66.9°F 76% 30.18 in 10.0 miles East 13.8 mph - N/A   Mostly Cloudy
10:53 PM 75.0°F 68.0°F 79% 30.17 in 10.0 miles East 12.7 mph - N/A   Overcast
11:53 PM 75.2°F 66.2°F 73% 30.17 in 10.0 miles East 10.4 mph - N/A   Scattered Clouds